When you browse on this site, cookies collect data to enhance your experience and personalize the content and advertising you see.
Visit our Privacy Policy to learn more. By continuing to use the site, you agree to this use of cookies and data.
  • In Latvia
  • List of Countries
  • For 7 days
  • Water Temperature
  • Weather Map
  • Weather Widgets
  • user-avatar
    Login

    Hourly Weather Omagh

    Today, 19 September, Thursday

    Time Temperature Precipitation Wind Pressure Humidity
    00:00 +11°C° 0 mm 1 mps 766 mmHg 94%
    01:00 +10°C° 0 mm 0 mps 766 mmHg 94%
    02:00 +10°C° 0 mm 0 mps 766 mmHg 95%
    03:00 +10°C° 0 mm 0 mps 765 mmHg 95%
    04:00 +9°C° 0 mm 0 mps 765 mmHg 95%
    05:00 +9°C° 0 mm 0 mps 765 mmHg 95%
    06:00 +9°C° 0 mm 0 mps 765 mmHg 95%
    07:00 +12°C° 0 mm 1 mps 766 mmHg 91%
    08:00 +13°C° 0 mm 1 mps 766 mmHg 87%
    09:00 +15°C° 0 mm 1 mps 766 mmHg 83%
    10:00 +16°C° 0 mm 1 mps 766 mmHg 77%
    11:00 +19°C° 0 mm 1 mps 766 mmHg 72%
    12:00 +20°C° 0 mm 1 mps 766 mmHg 67%
    13:00 +20°C° 0 mm 2 mps 765 mmHg 68%
    14:00 +20°C° 0 mm 2 mps 765 mmHg 69%
    15:00 +20°C° 0 mm 2 mps 765 mmHg 70%
    16:00 +19°C° 0 mm 2 mps 765 mmHg 76%
    17:00 +18°C° 0 mm 2 mps 764 mmHg 82%
    18:00 +17°C° 0 mm 2 mps 764 mmHg 88%
    19:00 +15°C° 0 mm 1 mps 764 mmHg 91%
    20:00 +14°C° 0 mm 1 mps 764 mmHg 93%
    21:00 +13°C° 0 mm 1 mps 764 mmHg 95%
    22:00 +12°C° 0 mm 1 mps 764 mmHg 95%
    23:00 +12°C° 0 mm 1 mps 764 mmHg 95%

    Tomorrow, 20 September, Friday

    Time Temperature Precipitation Wind Pressure Humidity
    00:00 +11°C° 0 mm 1 mps 763 mmHg 95%
    01:00 +11°C° 0 mm 1 mps 763 mmHg 95%
    02:00 +11°C° 0 mm 1 mps 762 mmHg 95%
    03:00 +11°C° 0 mm 1 mps 762 mmHg 95%
    04:00 +10°C° 0 mm 1 mps 761 mmHg 95%
    05:00 +10°C° 0 mm 1 mps 761 mmHg 96%
    06:00 +10°C° 0 mm 1 mps 760 mmHg 96%
    07:00 +12°C° 0 mm 2 mps 760 mmHg 93%
    08:00 +13°C° 0 mm 2 mps 760 mmHg 90%
    09:00 +14°C° 0 mm 3 mps 760 mmHg 86%
    10:00 +15°C° 0 mm 4 mps 759 mmHg 81%
    11:00 +18°C° 0 mm 4 mps 759 mmHg 76%
    12:00 +19°C° 0 mm 5 mps 758 mmHg 71%
    13:00 +19°C° 0 mm 6 mps 757 mmHg 70%
    14:00 +19°C° 0 mm 6 mps 757 mmHg 69%
    15:00 +19°C° 0 mm 6 mps 756 mmHg 68%
    16:00 +16°C° 0 mm 6 mps 755 mmHg 71%
    17:00 +15°C° 0 mm 6 mps 755 mmHg 75%
    18:00 +14°C° 0 mm 5 mps 754 mmHg 78%
    19:00 +14°C° 0 mm 5 mps 754 mmHg 80%
    20:00 +13°C° 0 mm 5 mps 753 mmHg 82%
    21:00 +13°C° 0 mm 5 mps 753 mmHg 84%
    22:00 +13°C° 0 mm 5 mps 752 mmHg 82%
    23:00 +13°C° 0 mm 5 mps 752 mmHg 80%

    Day after tomorrow, 21 September, Saturday

    Time Temperature Precipitation Wind Pressure Humidity
    00:00 +13°C° 0 mm 5 mps 751 mmHg 77%
    01:00 +13°C° 0 mm 6 mps 751 mmHg 77%
    02:00 +11°C° 0 mm 6 mps 750 mmHg 76%
    03:00 +11°C° 0 mm 6 mps 749 mmHg 76%
    04:00 +11°C° 0 mm 6 mps 749 mmHg 77%
    05:00 +11°C° 0 mm 6 mps 749 mmHg 78%
    06:00 +10°C° 0 mm 5 mps 748 mmHg 79%
    07:00 +11°C° 0 mm 6 mps 748 mmHg 77%
    08:00 +13°C° 0 mm 6 mps 747 mmHg 75%
    09:00 +14°C° 0 mm 6 mps 747 mmHg 73%
    10:00 +15°C° 0 mm 6 mps 747 mmHg 71%
    11:00 +16°C° 0 mm 6 mps 746 mmHg 69%
    12:00 +17°C° 0 mm 7 mps 746 mmHg 66%
    13:00 +17°C° 0 mm 7 mps 746 mmHg 68%
    14:00 +17°C° 0 mm 6 mps 745 mmHg 69%
    15:00 +17°C° 0 mm 6 mps 744 mmHg 70%
    16:00 +17°C° 0 mm 6 mps 744 mmHg 74%
    17:00 +16°C° 0 mm 6 mps 744 mmHg 78%
    18:00 +16°C° 0 mm 5 mps 743 mmHg 82%
    19:00 +16°C° 0 mm 5 mps 743 mmHg 84%
    20:00 +16°C° 0 mm 5 mps 743 mmHg 86%
    21:00 +16°C° 0 mm 5 mps 743 mmHg 89%
    22:00 +17°C° 0.1 mm 4 mps 743 mmHg 91%
    23:00 +15°C° 0.1 mm 4 mps 742 mmHg 93%

    22 September, Sunday

    Time Temperature Precipitation Wind Pressure Humidity
    00:00 +15°C° 0.1 mm 4 mps 742 mmHg 96%
    01:00 +15°C° 0.2 mm 4 mps 742 mmHg 96%
    02:00 +15°C° 0.2 mm 4 mps 742 mmHg 96%
    03:00 +15°C° 0.2 mm 4 mps 741 mmHg 96%
    04:00 +15°C° 0.5 mm 4 mps 741 mmHg 96%
    05:00 +15°C° 0.5 mm 4 mps 741 mmHg 97%
    06:00 +16°C° 0.5 mm 3 mps 741 mmHg 97%
    07:00 +16°C° 1 mm 3 mps 741 mmHg 97%
    08:00 +16°C° 1 mm 3 mps 741 mmHg 98%
    09:00 +16°C° 1 mm 2 mps 741 mmHg 98%
    10:00 +16°C° 1.8 mm 2 mps 741 mmHg 98%
    11:00 +16°C° 1.8 mm 1 mps 741 mmHg 98%
    12:00 +16°C° 1.8 mm 1 mps 741 mmHg 98%
    13:00 +16°C° 0.2 mm 2 mps 741 mmHg 96%
    14:00 +16°C° 0.2 mm 2 mps 742 mmHg 94%
    15:00 +17°C° 0.2 mm 2 mps 742 mmHg 92%
    16:00 +16°C° 0.5 mm 2 mps 742 mmHg 94%
    17:00 +16°C° 0.5 mm 2 mps 743 mmHg 95%
    18:00 +15°C° 0.5 mm 2 mps 743 mmHg 96%
    19:00 +14°C° 0.3 mm 1 mps 743 mmHg 96%
    20:00 +14°C° 0.3 mm 1 mps 744 mmHg 97%
    21:00 +13°C° 0.3 mm 1 mps 744 mmHg 98%
    22:00 +13°C° 0.1 mm 1 mps 744 mmHg 98%
    23:00 +13°C° 0.1 mm 1 mps 745 mmHg 98%

    23 September, Monday

    Time Temperature Precipitation Wind Pressure Humidity
    00:00 +13°C° 0.1 mm 1 mps 745 mmHg 98%
    01:00 +12°C° 0.2 mm 1 mps 745 mmHg 97%
    02:00 +12°C° 0.2 mm 2 mps 745 mmHg 97%
    03:00 +12°C° 0.2 mm 2 mps 745 mmHg 97%
    04:00 +12°C° 0.1 mm 1 mps 745 mmHg 97%
    05:00 +11°C° 0.1 mm 1 mps 746 mmHg 97%
    06:00 +11°C° 0.1 mm 1 mps 746 mmHg 97%
    07:00 +12°C° 0 mm 1 mps 746 mmHg 95%
    08:00 +12°C° 0 mm 1 mps 746 mmHg 93%
    09:00 +13°C° 0 mm 2 mps 746 mmHg 91%
    10:00 +14°C° 0 mm 2 mps 746 mmHg 85%
    11:00 +13°C° 0 mm 3 mps 746 mmHg 79%
    12:00 +14°C° 0 mm 4 mps 746 mmHg 73%
    13:00 +15°C° 0 mm 4 mps 745 mmHg 73%
    14:00 +15°C° 0 mm 5 mps 745 mmHg 74%
    15:00 +15°C° 0 mm 5 mps 744 mmHg 74%
    16:00 +15°C° 0.1 mm 5 mps 744 mmHg 79%
    17:00 +14°C° 0.1 mm 4 mps 744 mmHg 84%
    18:00 +13°C° 0.1 mm 4 mps 744 mmHg 89%
    19:00 +13°C° 0.1 mm 4 mps 744 mmHg 91%
    20:00 +13°C° 0.1 mm 4 mps 744 mmHg 93%
    21:00 +13°C° 0.1 mm 4 mps 744 mmHg 94%
    22:00 +13°C° 0.1 mm 3 mps 744 mmHg 95%
    23:00 +14°C° 0.1 mm 3 mps 743 mmHg 96%

    24 September, Tuesday

    Time Temperature Precipitation Wind Pressure Humidity
    00:00 +14°C° 0.1 mm 3 mps 743 mmHg 97%
    01:00 +14°C° 0.1 mm 2 mps 743 mmHg 97%
    02:00 +14°C° 0.1 mm 2 mps 743 mmHg 98%
    03:00 +14°C° 0.1 mm 2 mps 742 mmHg 98%
    04:00 +14°C° 0 mm 1 mps 742 mmHg 98%
    05:00 +14°C° 0 mm 1 mps 742 mmHg 98%
    06:00 +14°C° 0 mm 1 mps 741 mmHg 98%
    07:00 +14°C° 0.4 mm 1 mps 741 mmHg 97%
    08:00 +15°C° 0.4 mm 2 mps 741 mmHg 96%
    09:00 +15°C° 0.4 mm 2 mps 740 mmHg 95%
    10:00 +15°C° 0.7 mm 2 mps 740 mmHg 94%
    11:00 +16°C° 0.7 mm 2 mps 740 mmHg 93%
    12:00 +16°C° 0.7 mm 2 mps 740 mmHg 91%
    13:00 +16°C° 0.2 mm 2 mps 739 mmHg 89%
    14:00 +18°C° 0.2 mm 1 mps 739 mmHg 87%
    15:00 +18°C° 0.2 mm 1 mps 739 mmHg 84%
    16:00 +18°C° 0.2 mm 1 mps 739 mmHg 88%
    17:00 +16°C° 0.2 mm 1 mps 739 mmHg 91%
    18:00 +15°C° 0.2 mm 1 mps 739 mmHg 95%
    19:00 +14°C° 0 mm 1 mps 739 mmHg 95%
    20:00 +13°C° 0 mm 1 mps 739 mmHg 96%
    21:00 +12°C° 0 mm 1 mps 739 mmHg 96%
    22:00 +12°C° 0 mm 1 mps 739 mmHg 96%
    23:00 +12°C° 0 mm 1 mps 739 mmHg 96%
    Show more